Location: Walkway Over the Hudson
(41.7107°N, 73.9509°W)
Time: 23:59:38
(UTC-04:00)

ISS - Visible Passes

Search period start: 20 May 2025 00:00
Search period end: 30 May 2025 00:00
Orbit: 416 x 419 km, 51.6° (Epoch: 20 May)

Date Brightness Start Highest point End Pass type
(mag) Time Alt. Az. Time Alt. Az. Time Alt. Az.
20 May -0.7 00:07:34 10° WNW 00:07:50 12° WNW 00:07:50 12° WNW visible
20 May -1.5 21:43:05 10° NW 21:45:43 21° NNE 21:48:20 10° ENE visible
20 May -2.1 23:19:30 10° NW 23:21:26 32° NW 23:21:26 32° NW visible
21 May -1.3 20:55:06 10° NNW 20:57:27 17° NNE 20:59:48 10° NE visible
21 May -3.3 22:31:30 10° NW 22:34:48 52° NNE 22:35:03 50° NE visible
22 May -2.5 21:43:32 10° NW 21:46:39 34° NNE 21:48:41 18° E visible
22 May -1.4 23:20:21 10° WNW 23:21:35 19° W 23:21:35 19° W visible
23 May -2.0 20:55:34 10° NW 20:58:26 25° NNE 21:01:18 10° E visible
23 May -3.5 22:32:06 10° WNW 22:35:14 57° SW 22:35:14 57° SW visible
24 May -3.8 21:43:58 10° NW 21:47:20 82° NE 21:48:55 29° ESE visible
25 May -3.2 20:55:54 10° NW 20:59:12 50° NNE 21:02:28 10° ESE visible
25 May -1.9 22:33:11 10° W 22:35:32 20° SW 22:35:32 20° SW visible
26 May -2.7 21:44:39 10° WNW 21:47:45 34° SW 21:49:16 22° S visible
27 May -3.5 20:56:22 10° WNW 20:59:41 61° SW 21:02:59 10° SE visible
28 May -1.2 21:46:22 10° WSW 21:47:52 13° SW 21:49:22 10° SSW visible
29 May -1.8 20:57:15 10° W 20:59:53 21° SW 21:02:29 10° S visible
